Location: Bandini
(34.0067°N, 118.1678°W)
Time: 12:02:24
(UTC+00:00)

Daily predictions for brighter satellites

Satellite Brightness Start Highest point End
(mag) Time Altitude Azimuth Time Altitude Azimuth Time Altitude Azimuth
COSMOS 2428 3.5 12:00:07 10° NW 12:04:58 29° WSW 12:09:48 10° SSW
Delta 2 Rocket 4.3 12:03:05 10° W 12:07:20 37° SSW 12:12:01 10° SE
CZ-4C R/B 4.4 12:04:33 10° SSE 12:08:47 56° ENE 12:13:05 10° N
Cosmos 2219 3.4 12:08:07 10° SW 12:13:39 56° WNW 12:19:12 10° NNE
Cosmos 1544 3.0 12:10:57 10° S 12:14:27 89° E 12:17:58 10° N
OAO 3 Rocket 3.3 12:10:02 10° W 12:14:59 87° NNW 12:19:53 10° E
